Location: Newark
(42.8481°N, 0.4872°E)
Time: 15:55:43
(UTC+00:00)

Courier 1B Rocket - All Passes

Search period start: 21 October 2020 00:00
Search period end: 31 October 2020 00:00
Orbit: 920 x 1202 km, 28.2° (Epoch: 20 October)

Date Brightness Start Highest point End Pass type
(mag) Time Alt. Az. Time Alt. Az. Time Alt. Az.
21 Oct - 01:41:04 10° WSW 01:46:10 19° SSW 01:51:09 10° SSE night (unlit)
21 Oct - 20:54:36 10° SSW 20:59:49 20° SSE 21:05:06 10° ESE visible
21 Oct - 22:46:15 10° SW 22:52:31 27° S 22:58:47 10° SE night (unlit)
22 Oct - 00:39:30 10° WSW 00:45:16 23° SSW 00:50:56 10° SE night (unlit)
22 Oct - 02:35:50 10° SW 02:37:43 11° SSW 02:39:35 10° SSW night (unlit)
22 Oct - 19:54:43 10° SSW 19:58:57 16° SSE 20:03:15 10° SE visible
22 Oct - 21:45:29 10° SW 21:51:32 26° S 21:57:41 10° ESE night (unlit)
22 Oct - 23:38:13 10° WSW 23:44:19 25° S 23:50:23 10° SE night (unlit)
23 Oct - 01:32:46 10° SW 01:36:55 15° SSW 01:41:00 10° S night (unlit)
23 Oct - 18:55:52 10° S 18:58:09 12° SSE 19:00:27 10° SE visible
23 Oct - 20:44:56 10° SW 20:50:35 23° SSE 20:56:23 10° ESE visible
23 Oct - 22:37:08 10° WSW 22:43:20 27° S 22:49:35 10° SE night (unlit)
24 Oct - 00:30:52 10° WSW 00:36:02 19° SSW 00:41:11 10° SSE night (unlit)
24 Oct - 19:44:43 10° SSW 19:49:42 19° SSE 19:54:50 10° ESE visible
24 Oct - 21:36:15 10° SW 21:42:21 27° S 21:48:37 10° SE visible
24 Oct - 23:29:23 10° WSW 23:35:06 23° SSW 23:40:52 10° SE night (unlit)
25 Oct - 01:25:30 10° SW 01:27:36 11° SSW 01:29:43 10° S night (unlit)
25 Oct - 18:44:58 10° S 18:48:53 15° SSE 18:52:55 10° SE visible
25 Oct - 20:35:34 10° SW 20:41:24 25° S 20:47:26 10° ESE visible
25 Oct - 22:28:11 10° WSW 22:34:09 25° S 22:40:14 10° SE night (unlit)
26 Oct - 00:22:37 10° SW 00:26:47 15° SSW 00:30:56 10° S night (unlit)
26 Oct - 17:46:28 10° SSE 17:48:08 11° SSE 17:49:50 10° SE visible
26 Oct - 19:35:07 10° SW 19:40:30 22° SSE 19:46:05 10° ESE visible
26 Oct - 21:27:12 10° SW 21:33:11 26° S 21:39:22 10° SE visible
26 Oct - 23:20:49 10° WSW 23:25:53 19° SSW 23:31:01 10° SSE night (unlit)
27 Oct - 18:35:00 10° SSW 18:39:39 19° SSE 18:44:30 10° ESE visible
27 Oct - 20:26:24 10° SW 20:32:14 26° S 20:38:20 10° SE visible
27 Oct - 22:19:25 10° WSW 22:24:58 22° SSW 22:30:38 10° SE night (unlit)
28 Oct - 00:15:32 10° SW 00:17:29 11° SSW 00:19:28 10° SSW night (unlit)
28 Oct - 17:35:23 10° S 17:38:54 14° SSE 17:42:31 10° SE visible
28 Oct - 19:25:49 10° SW 19:31:20 24° S 19:37:07 10° ESE visible
28 Oct - 21:18:19 10° WSW 21:24:02 24° S 21:29:57 10° SE visible
28 Oct - 23:12:41 10° SW 23:16:38 15° SSW 23:20:39 10° S night (unlit)
29 Oct - 16:37:42 10° SSE 16:38:12 10° SSE 16:38:43 10° SSE daylight
29 Oct - 18:25:28 10° SW 18:30:29 21° SSE 18:35:46 10° ESE visible
29 Oct - 20:17:25 10° SW 20:23:06 25° S 20:29:03 10° SE visible
29 Oct - 22:10:56 10° WSW 22:15:46 18° SSW 22:20:42 10° SSE night (unlit)
30 Oct - 17:25:25 10° SSW 17:29:42 18° SSE 17:34:10 10° ESE visible
30 Oct - 19:16:43 10° SW 19:22:13 25° S 19:28:00 10° SE visible
30 Oct - 21:09:39 10° WSW 21:14:52 21° SSW 21:20:18 10° SSE visible
30 Oct - 23:06:05 10° SW 23:07:23 10° SSW 23:08:43 10° SSW night (unlit)
